Regional Weather Roundup
Issued by NWS Kansas City/Pleasant Hill, MO

Home | Current Version | Previous Version | Text Only | Print | Product List | Glossary On
Versions: 1 2 3 4 5 6 7 8 9 10 11 12 13 14 15 16 17 18 19 20 21 22 23 24 25 26
000
ASUS43 KEAX 251110
RWREAX

WEATHER ROUNDUP FOR EASTERN KANSAS AND NORTHWEST MISSOURI
NATIONAL WEATHER SERVICE KANSAS CITY/PLEASANT HILL MO
500 AM CST SUN FEB 25 2018

KSZ040-057-103>105-MOZ028-029-037-043-251200-
...KANSAS CITY METROPOLITAN AREA...

CITY           SKY/WX    TMP DP  RH WIND       PRES   REMARKS
K.C. INTL      CLEAR     25  19  78 SW8       29.97R WCI  16
K.C. DOWNTOWN  CLEAR     28  22  78 SW6       29.98S WCI  22
LEES SUMMIT    CLEAR     29  24  82 W6        29.98R WCI  23
OLATHE - IXD   CLEAR     22  20  92 S6        29.99R WCI  14
OLATHE - OJC   CLEAR     24  23  96 SW5       29.98R WCI  18
LAWRENCE       CLEAR     23  21  92 W5        29.99S WCI  17

$$

MOZ001>008-011>017-020>025-030>033-038>040-044>046-053-054-251200-
...NORTHERN AND CENTRAL MISSOURI...

CITY           SKY/WX    TMP DP  RH WIND       PRES   REMARKS
ST. JOSEPH     CLEAR     26  22  84 SW8       29.98R WCI  18
MOSBY            N/A     27  23  86 SW5       29.98R WCI  21
WARRENSBURG    CLEAR     28  27  93 SW6       30.00R WCI  22
WHITEMAN AFB   CLEAR    N/A N/A N/A W8        29.96R
CLINTON        CLEAR     30  28  93 NW5       30.00S WCI  25
SEDALIA        CLEAR     32  30  92 W7        29.99R WCI  26
WARSAW         NOT AVBL
CHILLICOTHE      N/A     29  23  78 CALM      29.97R
KIRKSVILLE     CLEAR     30  25  81 W12       29.91R WCI  20

$$

MOZ041-047>049-056>058-063>065-088>090-097-251200-
...EASTERN AND SOUTHERN MISSOURI...

CITY           SKY/WX    TMP DP  RH WIND       PRES   REMARKS
ST. LOUIS INTL CLEAR     35  30  82 W13       29.97R WCI  26
SPIRIT OF STL  CLEAR     36  30  79 SW10      29.97R WCI  28
COLUMBIA       CLEAR     32  27  81 W7        29.96R WCI  26
JEFFERSON CITY CLEAR     33  28  81 W5        29.99R WCI  29
ROLLA          CLEAR     31  30  96 SW9       29.98R WCI  23
OSAGE BEACH    CLEAR     32  31  96 W5        30.01R WCI  27
SPRINGFIELD    CLEAR     35  30  82 W6        30.00R WCI  30
JOPLIN         CLEAR     32  30  92 CALM      30.02R
WEST PLAINS    CLEAR     31  29  92 W3        30.00S

$$

IAZ060-094-KSZ022-034>040-054-083-096-NEZ052-066-093-251200-
...KANSAS...SOUTHEAST NEBRASKA AND IOWA...

CITY           SKY/WX    TMP DP  RH WIND       PRES   REMARKS
TOPEKA         CLEAR     25  22  88 S3        29.99S
MANHATTAN      CLEAR     19  16  88 CALM      29.98F
EMPORIA        CLEAR     26  18  71 W3        29.99R
CHANUTE        CLEAR     23  21  92 CALM      30.01S
WICHITA        CLEAR     23  22  96 CALM      29.98S
OMAHA          CLEAR     22  15  75 S3        29.88R
LINCOLN        CLEAR     23  16  74 SW8       29.92R WCI  14
FALLS CITY     CLEAR     26  19  74 SW10      29.94R WCI  16
LAMONI         CLEAR     26  19  74 SW9       29.89R WCI  17
DES MOINES     CLEAR     24  18  77 W9        29.85R WCI  14

$$





USA.gov is the U.S. government's official web portal to all federal, state and local government web resources and services.